Temperature
32 32 32 33 34 34 34 34 34 35 36 35 34 34 34 34 33 32 31 29 28 27 26 24 23 22 22 21 21 21 20 20 20 19 19 19 19 19 19 18 18 18 18 18
32 32 34 35 35 34 34 33 34 35 35 34 34 33 33 33 33 33 31 30 28 27 25 24 23 22 22 21 21 21 20 20 20 19 19 19 19 18 18 18 18 18 18 18
32 34 34 34 34 33 33 33 34 34 35 35 34 32 31 32 32 32 32 31 29 27 26 24 23 22 22 21 21 21 20 20 20 19 19 18 18 18 18 18 18 18 18 18
33 34 34 33 33 33 33 34 34 34 33 33 34 31 31 31 31 32 31 31 29 28 26 25 23 23 22 21 21 20 20 20 20 19 19 18 18 18 19 18 18 18 18 18
33 34 33 33 33 34 34 35 34 34 33 32 33 32 31 31 31 31 31 30 30 28 26 25 24 23 22 21 21 20 20 20 20 19 19 19 18 18 18 18 18 18 18 18
33 35 34 34 34 34 34 34 33 33 33 31 32 32 31 32 32 31 31 31 30 28 27 25 24 23 22 21 21 20 20 20 20 19 19 19 19 19 18 18 18 18 18 18
32 33 34 34 33 34 33 32 31 30 30 29 30 31 32 33 33 33 32 31 30 28 27 25 24 23 22 21 21 20 20 20 19 19 19 19 19 19 19 18 18 18 18 18
31 31 33 34 33 33 33 32 30 30 29 29 29 31 32 34 33 33 32 31 29 28 27 25 24 23 22 22 21 20 20 20 20 19 19 19 19 19 18 18 18 18 18 18
32 32 34 34 34 33 33 33 33 32 32 31 31 32 32 33 33 33 32 30 29 28 27 26 24 23 22 22 21 20 20 20 20 19 19 19 19 19 18 18 18 18 18 18
32 32 34 34 34 34 33 33 33 32 30 30 30 30 30 30 31 32 32 31 29 28 27 26 25 24 23 22 21 20 20 20 20 19 19 19 19 18 18 18 18 18 18 18
33 31 32 33 32 32 32 32 32 32 32 30 30 29 30 30 31 32 32 31 29 28 27 26 25 24 23 22 21 20 20 20 19 19 19 19 18 18 18 18 18 18 18 17
32 32 31 32 34 34 33 32 32 30 30 31 31 30 32 32 33 32 32 30 29 28 27 26 25 24 23 22 21 20 20 19 19 19 19 19 18 18 18 18 17 17 17 17
31 30 29 30 32 33 32 33 33 32 31 31 30 30 32 32 33 32 31 30 29 28 27 26 25 24 23 22 21 21 20 20 19 19 19 19 18 18 18 18 17 17 17 17
30 30 29 29 31 32 32 32 33 32 31 31 31 31 31 32 32 32 31 30 29 27 26 25 24 24 23 22 21 21 20 20 19 19 19 18 18 18 18 17 17 17 17 17
30 29 29 30 32 32 32 32 32 32 32 31 31 31 31 32 32 32 30 29 28 27 26 25 24 23 22 22 21 21 20 20 19 19 18 18 18 18 17 17 17 17 17 16
29 28 29 29 31 32 32 32 32 32 32 32 32 32 33 32 32 31 30 29 28 27 26 25 24 23 22 21 21 20 20 19 19 19 18 18 18 17 17 17 17 17 16 16
28 27 27 28 30 30 30 31 32 32 33 33 32 32 32 32 31 31 30 29 28 27 26 25 24 22 22 21 21 20 20 19 19 19 18 18 18 17 17 17 17 16 16 16
26 26 26 27 28 27 30 33 33 33 33 33 33 33 32 31 30 30 29 29 28 27 26 25 24 22 21 21 20 20 19 19 19 18 18 18 17 17 17 17 17 16 16 16
27 26 26 27 27 28 30 32 32 32 31 33 32 32 32 31 30 29 29 28 27 27 26 25 23 22 21 20 20 20 19 19 18 18 18 17 17 17 17 17 16 16 16 15
27 26 25 26 26 27 29 31 32 31 30 31 31 31 31 31 30 29 27 27 26 26 25 24 23 22 21 20 20 19 19 19 18 18 18 17 17 17 17 16 16 16 15 15
25 25 25 25 25 27 29 30 30 28 28 29 29 29 29 29 28 27 26 25 25 24 24 23 22 21 20 20 19 19 18 18 18 17 17 17 17 16 16 16 16 15 15 15
25 25 25 25 25 26 28 28 27 26 26 27 27 27 26 26 26 25 25 24 24 23 22 22 21 20 20 19 19 18 18 18 18 17 17 16 16 16 16 16 15 15 15 14
26 26 26 26 26 25 25 25 25 25 25 25 26 25 25 25 24 24 23 23 22 22 21 20 20 19 19 19 18 18 18 17 17 17 16 16 16 15 15 15 15 14 14 14
26 26 25 25 25 25 24 24 24 24 24 24 25 25 25 24 24 23 22 21 21 20 20 19 19 18 18 18 17 17 17 17 16 16 16 15 15 15 15 14 14 14 14 13
22 23 24 23 24 24 23 23 23 23 23 23 23 23 23 23 23 22 21 20 20 19 19 18 18 17 17 17 17 17 17 16 16 16 15 15 15 14 14 14 13 13 13 13
22 22 22 22 22 22 21 21 22 22 22 22 22 21 21 21 21 20 20 19 18 18 18 17 17 17 17 16 16 16 16 16 16 15 15 14 14 14 13 13 13 13 13 13
Wind_Speed
10 11 12 11 10 10 11 9 6 2 0 3 6 2 2 4 7 9 10 11 13 12 13 13 13 13 12 11 10 10 9 9 8 6 6 5 4 4 4 4 7 8 7 6
12 14 13 9 7 8 9 9 8 5 1 4 7 4 3 4 4 7 10 12 14 13 13 13 12 12 12 12 11 10 9 10 9 7 5 4 4 4 5 3 5 7 7 7
16 9 6 8 9 9 10 10 8 8 5 8 8 6 4 6 5 5 8 11 13 15 15 14 13 12 12 12 12 11 10 10 10 8 6 5 3 3 3 4 4 5 7 7
15 14 6 8 10 11 11 9 8 9 10 9 9 5 4 5 6 5 5 8 11 11 14 14 14 12 12 11 11 9 10 9 9 8 7 7 6 5 5 4 5 5 6 7
14 14 11 11 12 11 11 8 8 10 11 12 11 7 3 9 7 6 6 7 11 12 13 14 13 12 11 11 10 9 9 8 8 8 8 7 6 5 4 4 4 5 4 6
17 13 11 13 12 11 10 9 10 12 12 12 11 8 2 5 5 7 7 8 10 12 13 13 12 11 9 10 9 10 9 8 8 8 7 7 7 6 5 5 4 4 3 4
17 17 13 11 13 12 11 10 8 9 7 6 9 7 2 7 6 6 7 10 10 12 12 12 12 11 10 10 9 10 10 9 8 8 7 7 6 6 6 5 5 4 3 3
17 16 17 14 15 13 13 14 11 10 5 5 7 7 3 9 8 6 8 11 11 12 12 13 12 11 10 10 9 9 10 8 8 8 7 6 5 4 4 4 4 4 3 3
13 15 16 17 15 17 15 14 16 16 16 10 5 3 5 7 9 8 9 11 10 11 12 13 13 12 11 10 9 9 9 8 8 7 7 6 5 4 3 3 4 3 2 3
18 12 11 14 13 16 17 14 9 11 10 11 7 4 1 4 6 9 10 10 11 11 12 13 12 12 11 10 9 9 8 7 7 7 6 6 5 4 3 3 3 2 1 1
20 15 13 12 14 15 15 15 12 9 10 11 7 1 3 5 6 8 10 11 11 11 10 11 11 11 11 11 10 9 8 7 6 6 5 4 4 4 3 2 2 2 2 2
17 14 14 14 14 15 16 16 14 10 9 10 10 3 7 7 7 8 9 11 11 11 12 12 12 11 10 11 11 10 9 8 6 5 5 4 4 4 3 3 2 2 2 2
10 11 13 15 14 16 15 15 16 14 11 11 10 1 4 2 3 7 9 11 11 11 12 12 12 11 10 9 9 9 8 8 7 6 6 5 4 4 4 3 2 2 2 1
5 11 15 17 13 13 16 16 16 16 13 13 13 7 8 8 7 7 9 11 11 11 11 11 10 9 9 9 8 7 7 7 7 7 6 6 5 5 4 4 2 2 2 1
7 13 16 18 19 15 14 17 18 17 16 14 11 8 6 4 6 9 10 11 11 12 11 11 11 10 9 9 8 7 7 7 7 7 6 6 5 5 5 4 3 2 2 2
9 11 14 17 19 19 17 14 15 17 16 16 14 11 2 3 4 6 8 11 11 11 12 12 12 12 11 10 9 8 7 7 7 6 6 6 6 6 5 4 3 3 3 2
9 8 12 15 17 18 20 16 15 14 13 13 12 9 4 4 4 6 6 9 10 11 12 12 13 11 10 10 9 9 8 7 7 6 6 6 6 5 5 4 4 3 3 3
6 6 8 14 15 19 15 15 15 15 14 11 10 6 3 4 5 5 4 6 9 10 12 12 13 12 11 10 10 9 9 7 7 6 6 6 5 5 5 4 4 4 3 3
10 8 9 12 16 17 16 14 12 11 10 8 7 5 3 4 6 4 5 5 7 8 9 10 11 12 11 10 9 9 8 8 7 7 6 5 5 5 5 5 4 4 4 4
15 10 11 12 15 15 10 9 9 10 9 4 4 3 4 5 6 4 6 7 7 7 9 10 11 11 10 9 9 9 8 8 7 6 6 5 5 5 5 5 5 4 4 4
19 16 16 17 17 13 9 7 5 7 2 6 6 6 4 1 2 7 9 8 8 8 9 10 10 10 9 9 8 7 7 6 6 6 6 5 5 5 5 5 4 4 4 4
16 17 17 16 18 13 7 5 3 4 7 7 8 8 7 9 10 9 9 8 8 9 9 10 9 9 8 8 8 7 6 6 6 6 6 5 5 4 5 5 5 4 4 4
12 9 9 10 8 2 4 4 5 6 5 4 4 4 5 7 8 8 8 8 8 8 8 9 10 9 8 7 6 7 6 6 6 6 6 6 5 4 5 5 5 4 3 3
6 4 4 3 1 3 4 4 4 4 4 5 5 4 4 5 6 7 7 7 7 7 8 8 9 8 7 6 5 6 6 6 6 6 6 6 5 5 5 3 2 3 2 2
7 6 4 4 3 2 4 6 7 5 4 5 5 5 4 4 5 6 6 7 6 6 6 7 7 7 7 6 6 6 5 6 6 6 6 5 5 6 5 5 5 4 4 2
7 7 5 4 4 4 4 6 6 5 5 5 5 5 5 5 5 6 6 6 6 6 6 6 6 7 6 6 6 5 4 5 6 5 5 4 5 5 6 6 6 12 9 10
Wind_Direction
225 239 244 244 237 267 296 310 302 283 58 296 286 270 233 196 181 168 169 167 170 170 165 157 159 160 160 161 166 170 181 172 170 171 177 190 189 192 201 192 179 180 192 200
234 234 249 269 274 277 280 285 284 278 219 279 287 297 285 253 229 183 175 169 168 165 161 159 162 165 166 167 171 175 182 177 180 180 184 189 186 196 203 197 170 182 190 195
237 241 224 251 257 259 263 268 284 297 291 266 262 265 219 241 229 195 182 174 169 169 166 165 167 170 172 175 177 182 182 179 183 180 182 189 179 208 206 187 182 193 197 205
241 249 239 246 249 249 258 264 277 286 286 285 280 274 208 194 220 192 186 167 161 166 163 165 169 173 177 177 177 175 176 176 178 182 192 192 192 201 210 196 186 194 201 202
240 239 239 241 248 251 262 291 284 278 278 279 277 275 201 173 192 170 170 175 160 158 162 163 165 168 171 171 170 172 172 174 175 186 195 201 204 200 202 194 185 194 200 203
252 244 234 242 244 248 261 272 271 265 269 266 274 274 216 164 148 148 164 155 144 151 154 153 155 156 162 164 165 167 169 172 175 185 197 203 207 202 195 196 194 200 202 210
240 245 233 237 246 230 233 246 255 249 250 282 299 273 182 126 121 129 141 134 136 142 146 149 152 156 159 163 166 166 166 173 179 187 197 203 211 208 204 205 201 203 205 207
223 229 225 221 233 242 221 235 249 267 254 231 233 256 145 121 114 119 130 132 139 147 150 153 155 156 162 167 164 161 165 172 180 186 192 196 204 208 208 207 207 208 211 211
238 229 217 209 217 239 240 233 252 268 279 277 239 227 139 135 137 145 140 137 145 146 151 153 153 156 161 163 161 162 160 170 179 184 183 187 194 200 202 195 202 217 219 203
256 268 233 198 207 227 245 249 250 261 278 284 270 276 285 155 160 155 150 149 150 151 153 153 155 156 157 157 154 154 156 167 173 176 182 181 182 187 186 194 196 183 213 230
238 254 253 212 205 226 224 244 258 274 271 276 283 280 160 173 188 163 153 152 152 151 150 150 150 150 151 148 149 151 151 157 162 166 165 164 161 164 160 167 183 181 194 215
221 237 250 243 216 224 234 227 234 246 263 273 280 267 157 170 170 151 146 143 145 148 151 150 148 148 150 149 149 151 156 156 155 150 148 151 150 147 150 161 170 176 188 200
221 233 239 247 233 212 229 233 231 236 247 261 267 235 133 125 137 146 146 141 144 149 148 149 151 152 154 147 146 151 156 154 153 148 145 142 146 144 143 140 139 144 151 170
255 235 239 240 238 220 217 233 237 235 237 241 250 235 193 191 174 152 146 144 150 151 150 152 148 145 143 141 142 149 151 145 147 145 143 141 144 141 137 132 129 130 129 137
244 239 244 256 266 265 247 228 229 236 244 256 257 253 227 185 165 153 151 151 157 157 161 156 152 148 146 143 147 151 146 142 141 145 147 144 141 138 135 130 128 125 121 114
225 254 253 252 257 261 260 247 233 232 235 245 257 261 211 115 137 145 153 161 164 166 169 163 159 157 157 155 159 154 149 144 142 147 144 138 138 134 132 135 134 122 107 85
217 228 252 255 251 254 251 247 247 245 240 241 247 252 211 165 151 155 164 169 168 172 173 168 163 161 160 161 160 155 149 147 148 147 142 140 144 143 140 142 130 120 108 95
247 243 247 253 257 252 254 252 249 251 249 243 241 242 189 144 129 132 151 169 167 173 172 167 163 161 160 162 159 153 150 149 149 146 148 149 151 143 134 128 123 120 112 105
240 241 250 251 249 249 256 260 253 256 250 252 248 238 209 172 148 156 158 151 152 163 155 153 157 157 155 155 151 153 154 154 156 153 151 150 145 137 134 128 118 113 114 110
229 222 237 248 252 251 252 265 273 264 248 280 285 261 225 205 208 158 115 112 121 130 135 139 144 142 146 146 149 154 157 157 155 147 143 140 137 135 132 126 119 116 116 115
214 213 224 240 250 255 281 304 282 255 267 12 14 20 8 182 108 108 111 109 112 116 125 132 135 139 140 141 144 150 148 147 140 134 133 134 131 128 130 124 120 123 123 120
215 214 216 230 243 245 329 312 325 28 27 21 28 39 41 76 92 100 106 111 119 123 127 131 131 129 130 138 145 144 141 135 132 130 131 128 128 133 132 127 129 130 133 133
231 230 223 224 232 113 47 46 28 32 26 17 30 48 65 88 96 103 109 114 118 122 125 130 129 124 126 132 140 144 135 132 134 134 132 125 120 109 118 133 139 143 155 158
250 279 269 270 179 81 63 47 24 18 13 12 21 34 55 93 104 112 115 114 114 118 123 127 131 131 124 120 120 121 126 130 135 134 131 129 129 124 113 110 125 136 139 150
317 307 272 266 288 355 29 25 8 0 25 22 23 24 42 86 98 109 114 114 114 117 124 125 125 127 130 128 123 122 129 137 139 138 138 142 140 134 114 90 52 61 57 56
286 293 290 287 340 346 358 356 350 0 17 22 27 36 44 73 88 100 108 110 111 112 117 121 124 126 130 129 124 122 129 141 145 147 151 154 147 137 136 124 90 55 61 61
Height
1497 1497 1495 1487 1483 1484 1482 1483 1485 1478 1473 1479 1482 1483 1482 1484 1487 1491 1497 1501 1506 1511 1516 1519 1522 1525 1527 1529 1531 1533 1536 1538 1540 1543 1545 1547 1550 1552 1554 1556 1558 1559 1561 1563
1495 1495 1486 1481 1481 1483 1485 1488 1485 1477 1473 1480 1483 1484 1482 1483 1486 1489 1493 1498 1503 1509 1513 1517 1521 1523 1525 1527 1529 1531 1534 1536 1539 1541 1543 1546 1549 1551 1553 1555 1556 1557 1559 1561
1493 1485 1481 1484 1485 1488 1487 1488 1485 1484 1477 1476 1482 1490 1487 1484 1485 1488 1490 1495 1499 1505 1509 1514 1518 1521 1524 1525 1527 1529 1531 1534 1537 1540 1542 1545 1547 1549 1551 1552 1553 1556 1558 1559
1486 1480 1482 1486 1487 1487 1491 1479 1480 1483 1487 1488 1483 1501 1491 1485 1485 1485 1489 1492 1497 1502 1507 1512 1515 1519 1522 1524 1526 1528 1530 1533 1535 1538 1540 1543 1544 1546 1548 1550 1551 1553 1555 1557
1484 1480 1482 1488 1485 1482 1483 1477 1480 1483 1487 1491 1484 1493 1493 1483 1488 1486 1488 1491 1495 1500 1505 1510 1513 1517 1521 1523 1525 1527 1529 1531 1533 1535 1538 1540 1543 1545 1546 1548 1549 1551 1553 1554
1479 1475 1478 1480 1479 1479 1479 1482 1484 1484 1488 1504 1491 1493 1495 1482 1482 1483 1485 1489 1494 1499 1504 1509 1513 1516 1520 1522 1524 1525 1527 1529 1531 1534 1536 1538 1540 1542 1544 1545 1547 1548 1550 1551
1485 1478 1475 1477 1481 1479 1482 1495 1507 1510 1512 1514 1494 1492 1486 1474 1474 1479 1483 1488 1494 1498 1503 1508 1512 1516 1519 1521 1523 1524 1526 1527 1530 1532 1534 1536 1538 1540 1541 1543 1544 1546 1547 1548
1490 1489 1475 1474 1480 1481 1482 1489 1509 1518 1517 1514 1501 1495 1479 1469 1474 1479 1483 1488 1494 1498 1502 1507 1511 1514 1517 1520 1522 1523 1525 1526 1528 1530 1532 1534 1536 1538 1539 1540 1541 1543 1544 1545
1478 1480 1464 1467 1472 1476 1482 1483 1479 1489 1492 1500 1496 1484 1477 1472 1475 1479 1483 1488 1493 1497 1502 1506 1510 1513 1516 1519 1521 1522 1524 1525 1527 1529 1530 1532 1534 1535 1537 1538 1539 1540 1541 1543
1470 1477 1462 1462 1469 1472 1474 1474 1481 1491 1506 1511 1499 1496 1493 1483 1480 1479 1482 1487 1492 1497 1501 1506 1509 1512 1515 1518 1520 1522 1523 1525 1526 1528 1529 1531 1532 1534 1535 1536 1537 1537 1538 1540
1467 1477 1471 1464 1473 1476 1477 1480 1481 1483 1486 1503 1510 1507 1481 1481 1478 1478 1481 1486 1491 1496 1501 1504 1509 1512 1515 1517 1519 1521 1522 1524 1525 1527 1528 1529 1531 1532 1533 1534 1534 1535 1536 1538
1464 1471 1477 1468 1460 1464 1467 1473 1479 1495 1495 1489 1497 1496 1472 1474 1473 1476 1480 1485 1491 1496 1500 1504 1508 1512 1514 1517 1519 1520 1522 1523 1524 1526 1527 1528 1529 1530 1531 1532 1533 1534 1535 1536
1463 1472 1487 1484 1473 1465 1468 1466 1470 1475 1484 1491 1497 1495 1473 1474 1474 1477 1481 1485 1491 1495 1500 1504 1508 1511 1513 1516 1518 1520 1522 1523 1524 1525 1525 1526 1527 1528 1529 1531 1532 1532 1533 1534
1465 1471 1480 1486 1476 1465 1469 1469 1466 1472 1483 1488 1486 1483 1476 1473 1473 1476 1481 1485 1490 1495 1499 1503 1506 1509 1512 1515 1517 1520 1521 1522 1523 1524 1525 1526 1526 1527 1529 1529 1531 1531 1532 1532
1467 1474 1473 1469 1461 1459 1462 1463 1465 1469 1471 1478 1476 1475 1472 1471 1471 1475 1480 1485 1489 1494 1498 1502 1505 1508 1511 1514 1516 1519 1520 1522 1523 1524 1525 1525 1526 1527 1528 1529 1530 1531 1531 1532
1469 1474 1474 1473 1465 1460 1462 1459 1460 1462 1463 1466 1468 1469 1464 1468 1470 1474 1479 1483 1488 1492 1496 1500 1504 1507 1510 1512 1515 1517 1519 1521 1522 1523 1524 1525 1526 1527 1527 1528 1529 1530 1530 1531
1469 1479 1483 1480 1468 1465 1471 1460 1458 1458 1456 1461 1468 1466 1463 1467 1471 1474 1478 1482 1486 1490 1494 1498 1502 1505 1508 1511 1513 1515 1517 1519 1521 1522 1523 1524 1525 1526 1527 1528 1528 1529 1529 1530
1475 1479 1480 1480 1478 1489 1465 1447 1449 1453 1453 1453 1457 1459 1462 1466 1470 1474 1478 1480 1484 1488 1492 1496 1500 1503 1506 1509 1512 1514 1516 1518 1519 1521 1522 1523 1524 1525 1526 1527 1528 1528 1528 1528
1472 1478 1482 1482 1482 1476 1460 1450 1449 1454 1456 1453 1455 1458 1462 1465 1470 1474 1477 1480 1483 1486 1490 1494 1498 1502 1505 1508 1510 1512 1515 1516 1518 1519 1521 1522 1523 1524 1525 1526 1526 1527 1527 1527
1470 1475 1484 1483 1486 1483 1463 1450 1449 1453 1463 1455 1456 1458 1462 1464 1469 1474 1477 1479 1482 1486 1489 1493 1497 1500 1503 1506 1508 1511 1513 1515 1517 1518 1519 1520 1522 1523 1524 1524 1525 1526 1526 1527
1472 1476 1481 1483 1483 1471 1457 1452 1454 1470 1470 1461 1460 1461 1463 1465 1469 1474 1477 1480 1483 1486 1489 1493 1496 1499 1502 1505 1507 1510 1512 1513 1515 1516 1518 1519 1520 1521 1522 1523 1524 1525 1525 1526
1466 1471 1477 1479 1483 1478 1462 1458 1464 1469 1466 1465 1464 1466 1468 1468 1472 1475 1478 1481 1484 1487 1490 1493 1495 1498 1501 1503 1506 1508 1510 1512 1513 1515 1516 1517 1519 1520 1521 1522 1522 1523 1524 1525
1458 1459 1461 1466 1469 1467 1466 1468 1470 1469 1470 1469 1469 1470 1470 1471 1474 1477 1480 1483 1486 1488 1491 1493 1495 1498 1500 1503 1505 1507 1509 1511 1512 1513 1515 1516 1517 1518 1519 1520 1521 1522 1523 1524
1456 1457 1460 1463 1464 1465 1467 1469 1470 1471 1472 1472 1472 1471 1472 1474 1477 1479 1482 1484 1487 1489 1491 1493 1495 1497 1499 1502 1504 1506 1508 1509 1511 1512 1513 1514 1516 1517 1518 1519 1520 1521 1522 1523
1466 1464 1464 1466 1466 1467 1470 1471 1472 1472 1472 1472 1473 1474 1475 1476 1478 1481 1483 1485 1487 1489 1492 1493 1495 1497 1499 1501 1503 1504 1506 1508 1509 1510 1512 1513 1514 1516 1517 1518 1519 1520 1521 1522
1469 1470 1470 1471 1471 1472 1473 1473 1474 1474 1474 1474 1475 1476 1477 1478 1480 1482 1484 1486 1488 1490 1491 1493 1495 1497 1499 1500 1502 1503 1505 1506 1507 1508 1510 1512 1513 1514 1515 1516 1517 1518 1519 1520